Regional Weather Roundup
Issued by NWS

Home | Current Version | Previous Version | Graphics & Text | Print | Product List | Glossary On
Versions: 1 2 3 4 5 6 7 8 9 10 11 12 13 14 15 16 17 18 19 20 21 22 23 24 25 26 27 28 29 30 31 32 33 34 35 36 37 38 39 40 41 42 43 44 45 46 47 48 49 50
000
ASUS43 KMKX 312211
RWRWI

WISCONSIN REGIONAL WEATHER ROUNDUP
NATIONAL WEATHER SERVICE MILWAUKEE/SULLIVAN WI
500 PM CDT MON AUG 31 2015

NOTE: "FAIR" INDICATES FEW OR NO CLOUDS BELOW 12,000 FEET WITH NO
SIGNIFICANT WEATHER AND/OR OBSTRUCTIONS TO VISIBILITY.

WIZ001-002-006>008-014>016-023>028-312300-
NORTHWEST WISCONSIN

CITY           SKY/WX    TMP DP  RH WIND       PRES   REMARKS
SUPERIOR ARPT  MOSUNNY   81  69  65 SW17G26   29.83R HX  84
ASHLAND        SUNNY     79  69  71 S7G17     29.87S HX  81
HAYWARD        MOSUNNY   78  68  71 S12       29.92F HX  80
SIREN          SUNNY     82  68  63 S13G21    29.88F HX  84
CUMBERLAND     PTSUNNY   77  70  78 S12       29.92S
RICE LAKE      SUNNY     79  70  73 SE14      29.93F HX  81
CHETEK         PTSUNNY  N/A N/A N/A MISG      29.93F
LADYSMITH      MOSUNNY   78  69  74 S10       29.97F
EAU CLAIRE     SUNNY     82  70  66 S12       29.93F HX  86
MENOMONIE      SUNNY     83  70  64 S12       29.93S HX  86
NEW RICHMOND   CLOUDY    82  68  64 S14       29.91R HX  84
OSCEOLA        MOSUNNY   83  70  63 S10G17    29.91F HX  87
$$

WIZ003>005-009-010-017-018-312300-
NORTH CENTRAL WISCONSIN

CITY           SKY/WX    TMP DP  RH WIND       PRES   REMARKS
MANITOWISH WTR SUNNY     78  65  65 SW14G21   29.95S HX  80
ARBOR VITAE    SUNNY     80  67  65 SW12      29.96F HX  82
WOODRUFF       SUNNY     80  67  65 SW12      29.96F HX  82
RHINELANDER    SUNNY     77  66  68 S10       29.99F
EAGLE RIVER    SUNNY     78  61  55 SW9       29.97S HX  80
LAND O LAKES   SUNNY     80  60  49 SW9       29.97S HX  81
PHILLIPS       MOSUNNY   75  67  76 S9        29.97F
TOMAHAWK       MOSUNNY   75  65  71 SW3       30.00S
MEDFORD        CLOUDY    74  68  82 S7        30.00F
MERRILL        MOSUNNY   76  67  76 SW9       30.00S
$$

WIZ029-030-035-036-043>047-312300-
CENTRAL WISCONSIN

CITY           SKY/WX    TMP DP  RH WIND       PRES   REMARKS
WAUSAU         SUNNY     77  66  68 SW8       29.99S
MOSINEE        PTSUNNY   77  70  78 S7        30.01S
MARSHFIELD     MOSUNNY   80  66  62 S10       29.99F HX  82
STEVENS POINT  MOSUNNY   78  66  68 SW6       30.00S HX  80
WAUPACA        SUNNY     83  69  62 S9        29.99S HX  86
WAUTOMA        SUNNY     82  70  67 S8        30.00S HX  86
WISC RAPIDS    SUNNY     81  67  62 SW12      30.00F HX  83
CAMP DOUGLAS   PTSUNNY   82  73  74 S7        29.99S HX  88
$$

WIZ011>013-019>022-031-037>040-048>050-312300-
NORTHEAST WISCONSIN

CITY           SKY/WX    TMP DP  RH WIND       PRES   REMARKS
ANTIGO         SUNNY     76  67  72 SW8       30.01S
SHAWANO        SUNNY     80  68  66 SW6       29.98S HX  83
OCONTO         SUNNY     78  69  73 SW7       29.97S HX  80
STURGEON BAY   SUNNY     75  66  73 S6        30.00S
GREEN BAY      SUNNY     78  68  71 SW9       29.99S HX  80
MANITOWOC      SUNNY     79  67  66 MISG      30.00S HX  81
APPLETON       MOSUNNY   79  66  65 S12       29.98F HX  81
CLINTONVILLE   SUNNY     79  66  65 SW9       29.98F HX  81
OSHKOSH        SUNNY     79  68  69 S9        29.99F HX  81
$$

WIZ032>034-041-042-053>061-312300-
SOUTHWEST WISCONSIN

CITY           SKY/WX    TMP DP  RH WIND       PRES   REMARKS
LA CROSSE      MOSUNNY   84  70  62 S9        29.95F HX  88
SPARTA         PTSUNNY   82  67  59 S5        29.98S HX  85
VIROQUA          N/A     81  69  67 S6        30.00F HX  84
BOSCOBEL       MOSUNNY   86  69  56 VRB6      29.98F HX  90
PRAIRIE DU CHI MOSUNNY   83  68  59 SE5       29.97S HX  86
PLATTEVILLE    MOSUNNY   82  71  70 S8        30.00F HX  86
$$

WIZ056-057-062-063-064-067-068-312300-
SOUTH CENTRAL WISCONSIN

CITY           SKY/WX    TMP DP  RH WIND       PRES   REMARKS
REEDSBURG      MOSUNNY   82  69  65 S8        29.99S HX  85
BARABOO/DELLS  PTSUNNY   82  65  56 S10       30.00S HX  84
LONE ROCK      SUNNY     83  67  58 S8        30.00S HX  85
MINERAL POINT  NOT AVBL
MADISON        MOSUNNY   82  67  60 S12       30.00S HX  84
MIDDLETON      MOSUNNY   84  65  53 SW8       30.02R HX  86
WATERTOWN      SUNNY     81  68  65 SW8       30.01S HX  84
MONROE         MOSUNNY   82  66  57 S9        30.02S HX  85
JANESVILLE     MOSUNNY   84  66  54 SW12      30.01F HX  86
$$

WIZ051-052-058>065-066-070>072-312300-
SOUTHEAST WISCONSIN

CITY           SKY/WX    TMP DP  RH WIND       PRES   REMARKS
MILWAUKEE      PTSUNNY   75  66  73 SE12      30.02S
WAUKESHA       SUNNY     79  66  65 SW6       30.03F HX  81
MILWAUKEE/TIMM SUNNY     81  64  57 SW6       30.02F HX  82
RACINE         SUNNY     75  65  70 S7        30.04S
BURLINGTON     SUNNY     80  66  62 SW5       30.02S HX  82
KENOSHA        SUNNY     78  68  71 SE5       30.03S HX  80
FOND DU LAC    SUNNY     79  68  69 SW6       30.00F HX  81
SHEBOYGAN      SUNNY     79  68  69 SW10      30.00F HX  81
WEST BEND      SUNNY     79  64  61 SW8       30.01F HX  81
JUNEAU         SUNNY     79  69  70 S9        30.02F HX  82
$$

LSZ147-162-312300-
LAKE SUPERIOR

STATION/POSITION TIME  TEMP    WIND        PRES    WAVE
                       AIR SEA DIR/SP/G            HT/PER
                 (UTC) (F)     (DEG/KT/KT) (MB)    (FT/S)
W MID LAKE BUOY  2150   62 58  270/  2/  2 1010.5F   1
DEVILS ISLAND    2200   76     200/  5/  6 1009.9F
PORT WING        2100   81     200/ 11/ 19 1010.2F
SAXON HARBOR     2140   81     210/  9/ 13 1010.8S
$$

LMZ867-665-643>646-312300-
LAKE MICHIGAN

STATION/POSITION TIME  TEMP    WIND        PRES    WAVE
                       AIR SEA DIR/SP/G            HT/PER
                 (UTC) (F)     (DEG/KT/KT) (MB)    (FT/S)
CHAMBERS ISLAND  2100   74     190/  7/ 13 1014.9F
S GREEN BAY BUOY 2100   69 64  210/  8/  8 1016.6
N MID LAKE BUOY  2150   65 65  200/ 14/ 16 1014.9S   2/ 4
NORTHPORT PIER   2100   72     160/  5/ 10 1014.9S
KEWAUNEE LAKESHO 2100   55     170/ 14/ 16 1014.7F
SHEBOYGAN LAKESH 2200   67     180/ 18/ 19 1016.0F
PORT WASHINGTON  2100   67     190/  8/ 10 1016.9F
ATWATER BUOY     2200   58 51  190/  6/  6 1017.9S
MILWAUKEE LAKESH 2110   62     140/ 11/ 12   N/A
S MID LAKE BUOY  2150   70 71  150/  6/  6 1016.5F   0
KENOSHA   LAKESH 2200   69     170/  8/ 10 1016.3S
$$

TC  - TEMPERATURE IN CELSIUS
VSB - VISIBILITY IN STATUTE MILES
WCI - WIND CHILL INDEX
HX  - HEAT INDEX



USA.gov is the U.S. government's official web portal to all federal, state and local government web resources and services.